DAL1061 KSJC-KLAX

Flight info

Callsign DAL1061
Flight time 0h 54m
Altitude 37000
Route SPTNS1 VLREE DCT EBAYE DCT BURGL IRNMN2
Aircraft A319/M-VGDW/C

Departure

Time 2026-05-05 04:32
Airport Norman Y. Mineta San Jose International Airport (KSJC)

Arrival

Time 2026-05-05 05:26
Airport Los Angeles International Airport (KLAX)
Time Latitude Longitude Altitude Speed Heading
2026-05-05 04:05 37.37149 -121.93275 42 ft 0 kts 118°
2026-05-05 04:20 37.37157 -121.93294 42 ft 3 kts 118°
2026-05-05 04:20 37.37170 -121.93323 43 ft 3 kts 117°
2026-05-05 04:20 37.37183 -121.93353 43 ft 3 kts 117°
2026-05-05 04:20 37.37195 -121.93382 44 ft 3 kts 111°
2026-05-05 04:21 37.37196 -121.93403 45 ft 0 kts 76°
2026-05-05 04:21 37.37195 -121.93402 46 ft 0 kts 73°
2026-05-05 04:23 37.37195 -121.93401 46 ft 0 kts 70°
2026-05-05 04:23 37.37201 -121.93381 44 ft 5 kts 70°
2026-05-05 04:23 37.37197 -121.93354 42 ft 0 kts 147°
2026-05-05 04:25 37.37191 -121.93349 43 ft 2 kts 150°
2026-05-05 04:25 37.37167 -121.93336 44 ft 5 kts 165°
2026-05-05 04:25 37.37127 -121.93331 46 ft 6 kts 178°
2026-05-05 04:25 37.37073 -121.93292 46 ft 13 kts 139°
2026-05-05 04:26 37.36993 -121.93204 47 ft 16 kts 139°
2026-05-05 04:26 37.36908 -121.93111 48 ft 16 kts 139°
2026-05-05 04:26 37.36821 -121.93016 50 ft 16 kts 139°
2026-05-05 04:26 37.36734 -121.92920 51 ft 16 kts 138°
2026-05-05 04:27 37.36648 -121.92825 52 ft 16 kts 139°
2026-05-05 04:27 37.36559 -121.92728 54 ft 17 kts 139°
2026-05-05 04:27 37.36467 -121.92626 55 ft 17 kts 139°
2026-05-05 04:27 37.36375 -121.92526 56 ft 17 kts 139°
2026-05-05 04:28 37.36282 -121.92426 58 ft 17 kts 139°
2026-05-05 04:28 37.36192 -121.92326 59 ft 17 kts 139°
2026-05-05 04:28 37.36099 -121.92225 60 ft 17 kts 139°
2026-05-05 04:28 37.36007 -121.92125 61 ft 17 kts 139°
2026-05-05 04:29 37.35916 -121.92025 62 ft 17 kts 139°
2026-05-05 04:29 37.35825 -121.91924 63 ft 17 kts 138°
2026-05-05 04:29 37.35733 -121.91822 64 ft 17 kts 138°
2026-05-05 04:29 37.35642 -121.91721 65 ft 17 kts 139°
2026-05-05 04:30 37.35548 -121.91619 66 ft 17 kts 139°
2026-05-05 04:30 37.35455 -121.91517 67 ft 17 kts 139°
2026-05-05 04:30 37.35357 -121.91421 67 ft 17 kts 167°
2026-05-05 04:30 37.35264 -121.91510 67 ft 17 kts 241°
2026-05-05 04:31 37.35321 -121.91633 67 ft 18 kts 318°
2026-05-05 04:31 37.35535 -121.91868 65 ft 78 kts 319°
2026-05-05 04:31 37.36129 -121.92522 64 ft 145 kts 319°
2026-05-05 04:31 37.36952 -121.93404 572 ft 159 kts 319°
2026-05-05 04:32 37.37757 -121.94290 1435 ft 157 kts 318°
2026-05-05 04:32 37.38570 -121.95186 2205 ft 161 kts 318°
2026-05-05 04:32 37.39456 -121.96165 2747 ft 177 kts 319°
2026-05-05 04:32 37.40462 -121.97172 3226 ft 198 kts 334°
2026-05-05 04:33 37.41855 -121.97507 3787 ft 217 kts
2026-05-05 04:33 37.43297 -121.96715 4380 ft 238 kts 42°
2026-05-05 04:33 37.44177 -121.94874 4842 ft 263 kts 77°
2026-05-05 04:33 37.44016 -121.92540 5476 ft 279 kts 115°
2026-05-05 04:34 37.42884 -121.90648 6585 ft 274 kts 136°
2026-05-05 04:34 37.41456 -121.89073 7521 ft 278 kts 139°
2026-05-05 04:34 37.39986 -121.87485 8354 ft 285 kts 137°
2026-05-05 04:34 37.38509 -121.85793 9257 ft 288 kts 135°
2026-05-05 04:35 37.37059 -121.84051 10122 ft 292 kts 134°
2026-05-05 04:35 37.35602 -121.82252 10886 ft 299 kts 133°
2026-05-05 04:35 37.34107 -121.80389 11673 ft 305 kts 133°
2026-05-05 04:35 37.32586 -121.78509 12492 ft 309 kts 134°
2026-05-05 04:36 37.30998 -121.76687 13298 ft 312 kts 134°
2026-05-05 04:36 37.29386 -121.74859 14093 ft 315 kts 134°
2026-05-05 04:36 37.27733 -121.72989 14878 ft 318 kts 134°
2026-05-05 04:36 37.26088 -121.71125 15636 ft 321 kts 134°
2026-05-05 04:37 37.24429 -121.69244 16372 ft 324 kts 133°
2026-05-05 04:37 37.22753 -121.67348 17103 ft 326 kts 133°
2026-05-05 04:37 37.21052 -121.65421 17818 ft 329 kts 133°
2026-05-05 04:37 37.19356 -121.63502 18526 ft 332 kts 133°
2026-05-05 04:38 37.17638 -121.61560 19202 ft 334 kts 132°
2026-05-05 04:38 37.15912 -121.59612 19905 ft 336 kts 131°
2026-05-05 04:38 37.14149 -121.57621 20566 ft 339 kts 131°
2026-05-05 04:38 37.12397 -121.55641 21209 ft 341 kts 131°
2026-05-05 04:39 37.10637 -121.53657 21814 ft 344 kts 130°
2026-05-05 04:39 37.08859 -121.51650 22407 ft 347 kts 130°
2026-05-05 04:39 37.07053 -121.49618 23019 ft 349 kts 130°
2026-05-05 04:39 37.05237 -121.47610 23609 ft 352 kts 130°
2026-05-05 04:40 37.03363 -121.45607 24229 ft 354 kts 131°
2026-05-05 04:40 37.01468 -121.43593 24783 ft 357 kts 131°
2026-05-05 04:40 36.99589 -121.41592 25328 ft 360 kts 130°
2026-05-05 04:40 36.97680 -121.39562 25895 ft 362 kts 130°
2026-05-05 04:41 36.95752 -121.37512 26406 ft 366 kts 130°
2026-05-05 04:41 36.93788 -121.35422 26937 ft 368 kts 130°
2026-05-05 04:41 36.91782 -121.33282 27427 ft 372 kts 131°
2026-05-05 04:41 36.89794 -121.31165 27890 ft 376 kts 131°
2026-05-05 04:42 36.87774 -121.29018 28360 ft 379 kts 131°
2026-05-05 04:42 36.85776 -121.26897 28822 ft 381 kts 130°
2026-05-05 04:42 36.83734 -121.24731 29272 ft 383 kts 130°
2026-05-05 04:42 36.81703 -121.22578 29677 ft 386 kts 130°
2026-05-05 04:43 36.79641 -121.20390 30057 ft 389 kts 130°
2026-05-05 04:43 36.77590 -121.18220 30523 ft 389 kts 130°
2026-05-05 04:43 36.75565 -121.16080 31229 ft 379 kts 131°
2026-05-05 04:43 36.73589 -121.13989 31904 ft 370 kts 132°
2026-05-05 04:44 36.71624 -121.11904 32224 ft 371 kts 133°
2026-05-05 04:44 36.69635 -121.09799 32436 ft 374 kts 134°
2026-05-05 04:44 36.67656 -121.07709 32674 ft 377 kts 134°
2026-05-05 04:44 36.65650 -121.05592 32897 ft 380 kts 135°
2026-05-05 04:45 36.63609 -121.03444 33112 ft 383 kts 135°
2026-05-05 04:45 36.61568 -121.01299 33352 ft 386 kts 135°
2026-05-05 04:45 36.59520 -120.99168 33561 ft 388 kts 137°
2026-05-05 04:45 36.57410 -120.97015 33801 ft 391 kts 137°
2026-05-05 04:46 36.55289 -120.94865 34047 ft 393 kts 137°
2026-05-05 04:46 36.53173 -120.92715 34280 ft 395 kts 138°
2026-05-05 04:46 36.51038 -120.90552 34534 ft 397 kts 138°
2026-05-05 04:46 36.48895 -120.88378 34768 ft 399 kts 138°
2026-05-05 04:47 36.46749 -120.86202 34984 ft 400 kts 139°
2026-05-05 04:47 36.44595 -120.84015 35187 ft 402 kts 140°
2026-05-05 04:47 36.42428 -120.81820 35426 ft 403 kts 139°
2026-05-05 04:47 36.40248 -120.79617 35629 ft 405 kts 140°
2026-05-05 04:48 36.38045 -120.77386 35802 ft 407 kts 140°
2026-05-05 04:48 36.35851 -120.75166 35984 ft 409 kts 140°
2026-05-05 04:48 36.33651 -120.72942 36160 ft 410 kts 141°
2026-05-05 04:48 36.31426 -120.70695 36377 ft 410 kts 141°
2026-05-05 04:49 36.29241 -120.68490 36586 ft 410 kts 141°
2026-05-05 04:49 36.26997 -120.66231 36761 ft 411 kts 141°
2026-05-05 04:49 36.24777 -120.63994 36906 ft 413 kts 142°
2026-05-05 04:50 36.20305 -120.59497 36976 ft 417 kts 142°
2026-05-05 04:50 36.15784 -120.54954 36974 ft 417 kts 142°
2026-05-05 04:51 36.11293 -120.50451 36991 ft 417 kts 142°
2026-05-05 04:51 36.06764 -120.45911 36974 ft 417 kts 143°
2026-05-05 04:52 36.02269 -120.41411 36985 ft 417 kts 143°
2026-05-05 04:52 35.97742 -120.36894 36993 ft 416 kts 143°
2026-05-05 04:53 35.93213 -120.32377 36994 ft 415 kts 144°
2026-05-05 04:53 35.88668 -120.27863 36999 ft 415 kts 145°
2026-05-05 04:54 35.83928 -120.23830 36993 ft 412 kts 152°
2026-05-05 04:54 35.79049 -120.20150 37000 ft 411 kts 152°
2026-05-05 04:55 35.74167 -120.16473 36997 ft 411 kts 152°
2026-05-05 04:55 35.69293 -120.12803 37001 ft 410 kts 152°
2026-05-05 04:56 35.64417 -120.09132 37001 ft 411 kts 152°
2026-05-05 04:56 35.59553 -120.05457 37005 ft 409 kts 152°
2026-05-05 04:57 35.54684 -120.01788 36996 ft 409 kts 152°
2026-05-05 04:57 35.49815 -119.98126 36998 ft 420 kts 152°
2026-05-05 04:58 35.46121 -119.95352 36995 ft 428 kts 152°
2026-05-05 04:58 35.39471 -119.90357 36988 ft 434 kts 152°
2026-05-05 04:59 35.34361 -119.86524 36987 ft 434 kts 153°
2026-05-05 04:59 35.29243 -119.82622 36606 ft 430 kts 150°
2026-05-05 04:59 35.26809 -119.80495 36084 ft 431 kts 147°
2026-05-05 05:00 35.24429 -119.78274 35587 ft 429 kts 147°
2026-05-05 05:00 35.22073 -119.76066 35110 ft 427 kts 147°
2026-05-05 05:00 35.19732 -119.73877 34565 ft 427 kts 147°
2026-05-05 05:00 35.17352 -119.71652 33999 ft 427 kts 147°
2026-05-05 05:01 35.15016 -119.69473 33547 ft 424 kts 147°
2026-05-05 05:01 35.12701 -119.67309 33140 ft 420 kts 147°
2026-05-05 05:01 35.10389 -119.65156 32773 ft 416 kts 147°
2026-05-05 05:01 35.08091 -119.63012 32274 ft 409 kts 147°
2026-05-05 05:02 35.05869 -119.60941 31618 ft 406 kts 147°
2026-05-05 05:02 35.03619 -119.58849 30897 ft 403 kts 147°
2026-05-05 05:02 35.01415 -119.56806 30123 ft 399 kts 148°
2026-05-05 05:02 34.99220 -119.54768 29320 ft 396 kts 148°
2026-05-05 05:03 34.97035 -119.52741 28529 ft 391 kts 148°
2026-05-05 05:03 34.94897 -119.50761 27897 ft 386 kts 148°
2026-05-05 05:03 34.92765 -119.48785 27507 ft 381 kts 147°
2026-05-05 05:03 34.90658 -119.46848 27119 ft 377 kts 148°
2026-05-05 05:04 34.88540 -119.44944 26716 ft 375 kts 148°
2026-05-05 05:04 34.86467 -119.43093 26305 ft 373 kts 148°
2026-05-05 05:04 34.84371 -119.41222 25924 ft 370 kts 148°
2026-05-05 05:04 34.82302 -119.39379 25531 ft 368 kts 148°
2026-05-05 05:05 34.80265 -119.37560 25135 ft 365 kts 148°
2026-05-05 05:05 34.78209 -119.35722 24739 ft 364 kts 148°
2026-05-05 05:05 34.76133 -119.33869 24335 ft 361 kts 148°
2026-05-05 05:05 34.74095 -119.32056 23930 ft 359 kts 148°
2026-05-05 05:06 34.72025 -119.30247 23501 ft 372 kts 148°
2026-05-05 05:06 34.69870 -119.28374 23049 ft 387 kts 148°
2026-05-05 05:06 34.67643 -119.26433 22608 ft 389 kts 148°
2026-05-05 05:06 34.65476 -119.24536 22210 ft 387 kts 148°
2026-05-05 05:07 34.63302 -119.22646 21805 ft 384 kts 148°
2026-05-05 05:07 34.61104 -119.20750 21390 ft 382 kts 148°
2026-05-05 05:07 34.58950 -119.18896 20964 ft 380 kts 148°
2026-05-05 05:07 34.56777 -119.17024 20536 ft 378 kts 148°
2026-05-05 05:08 34.54657 -119.15174 20099 ft 376 kts 147°
2026-05-05 05:08 34.52531 -119.13290 19701 ft 373 kts 147°
2026-05-05 05:08 34.50459 -119.11448 19315 ft 372 kts 147°
2026-05-05 05:08 34.48374 -119.09599 18880 ft 369 kts 146°
2026-05-05 05:09 34.46298 -119.07762 18462 ft 367 kts 146°
2026-05-05 05:09 34.44239 -119.05939 18082 ft 364 kts 147°
2026-05-05 05:09 34.42174 -119.04138 17646 ft 363 kts 147°
2026-05-05 05:09 34.40111 -119.02353 17217 ft 361 kts 147°
2026-05-05 05:10 34.38061 -119.00581 16795 ft 360 kts 147°
2026-05-05 05:10 34.36049 -118.98843 16384 ft 358 kts 147°
2026-05-05 05:10 34.34023 -118.97089 15975 ft 356 kts 146°
2026-05-05 05:10 34.32031 -118.95301 15564 ft 354 kts 145°
2026-05-05 05:11 34.30059 -118.93501 15150 ft 353 kts 145°
2026-05-05 05:11 34.28104 -118.91716 14722 ft 351 kts 145°
2026-05-05 05:11 34.26170 -118.89957 14311 ft 349 kts 145°
2026-05-05 05:11 34.24215 -118.88176 13897 ft 348 kts 144°
2026-05-05 05:12 34.22310 -118.86424 13588 ft 340 kts 144°
2026-05-05 05:12 34.20470 -118.84728 13154 ft 324 kts 144°
2026-05-05 05:12 34.18701 -118.83099 12754 ft 315 kts 144°
2026-05-05 05:12 34.16974 -118.81507 12387 ft 306 kts 143°
2026-05-05 05:13 34.15366 -118.79854 12130 ft 305 kts 140°
2026-05-05 05:13 34.13780 -118.78135 11771 ft 303 kts 140°
2026-05-05 05:13 34.12237 -118.76453 11414 ft 301 kts 139°
2026-05-05 05:13 34.10679 -118.74753 11066 ft 299 kts 140°
2026-05-05 05:14 34.09142 -118.73079 10711 ft 297 kts 140°
2026-05-05 05:14 34.07601 -118.71405 10355 ft 295 kts 140°
2026-05-05 05:14 34.06091 -118.69766 10007 ft 293 kts 140°
2026-05-05 05:14 34.04568 -118.68112 9656 ft 291 kts 139°
2026-05-05 05:15 34.03248 -118.66328 9427 ft 286 kts 120°
2026-05-05 05:15 34.02633 -118.64056 9096 ft 286 kts 98°
2026-05-05 05:15 34.02426 -118.61706 8676 ft 287 kts 96°
2026-05-05 05:15 34.02245 -118.59294 8297 ft 287 kts 96°
2026-05-05 05:16 34.02052 -118.56911 7996 ft 283 kts 96°
2026-05-05 05:16 34.01852 -118.54605 7893 ft 271 kts 97°
2026-05-05 05:16 34.01652 -118.52404 7661 ft 267 kts 97°
2026-05-05 05:16 34.01443 -118.50185 7426 ft 262 kts 97°
2026-05-05 05:17 34.01240 -118.48027 7197 ft 257 kts 97°
2026-05-05 05:17 34.01096 -118.45928 6965 ft 253 kts 89°
2026-05-05 05:17 34.01288 -118.43857 6763 ft 249 kts 79°
2026-05-05 05:17 34.01634 -118.41834 6477 ft 248 kts 77°
2026-05-05 05:18 34.01979 -118.39955 6211 ft 247 kts 77°
2026-05-05 05:18 34.02349 -118.37916 6013 ft 241 kts 78°
2026-05-05 05:18 34.02679 -118.36018 5956 ft 229 kts 80°
2026-05-05 05:18 34.02900 -118.34222 5756 ft 226 kts 83°
2026-05-05 05:19 34.03093 -118.32323 5381 ft 230 kts 84°
2026-05-05 05:19 34.03277 -118.30448 5059 ft 231 kts 84°
2026-05-05 05:19 34.03454 -118.28655 4773 ft 231 kts 84°
2026-05-05 05:19 34.03644 -118.26749 4480 ft 231 kts 83°
2026-05-05 05:20 34.03699 -118.24857 4243 ft 223 kts 101°
2026-05-05 05:20 34.03128 -118.23181 3971 ft 215 kts 127°
2026-05-05 05:20 34.02069 -118.21993 3662 ft 203 kts 150°
2026-05-05 05:20 34.00802 -118.21439 3425 ft 193 kts 172°
2026-05-05 05:21 33.99511 -118.21483 3223 ft 183 kts 194°
2026-05-05 05:21 33.98387 -118.22027 3055 ft 174 kts 212°
2026-05-05 05:21 33.97484 -118.22948 2896 ft 174 kts 230°
2026-05-05 05:21 33.96883 -118.24163 2733 ft 173 kts 249°
2026-05-05 05:22 33.96630 -118.25465 2592 ft 171 kts 262°
2026-05-05 05:22 33.96497 -118.26843 2320 ft 164 kts 264°
2026-05-05 05:22 33.96388 -118.28136 2051 ft 157 kts 264°
2026-05-05 05:22 33.96278 -118.29374 1821 ft 145 kts 263°
2026-05-05 05:23 33.96185 -118.30504 1646 ft 133 kts 263°
2026-05-05 05:23 33.96091 -118.31598 1444 ft 131 kts 262°
2026-05-05 05:23 33.95988 -118.32659 1322 ft 130 kts 261°
2026-05-05 05:23 33.95869 -118.33718 1148 ft 130 kts 262°
2026-05-05 05:24 33.95761 -118.34773 952 ft 129 kts 262°
2026-05-05 05:24 33.95652 -118.35845 794 ft 128 kts 262°
2026-05-05 05:24 33.95547 -118.36897 638 ft 128 kts 262°
2026-05-05 05:24 33.95444 -118.37961 474 ft 128 kts 262°
2026-05-05 05:25 33.95334 -118.39026 315 ft 127 kts 261°
2026-05-05 05:25 33.95222 -118.40076 162 ft 126 kts 261°
2026-05-05 05:25 33.95118 -118.41081 125 ft 106 kts 262°
2026-05-05 05:25 33.95051 -118.41752 123 ft 56 kts 263°
2026-05-05 05:26 33.94996 -118.42091 120 ft 32 kts 243°
2026-05-05 05:26 33.94910 -118.42239 119 ft 15 kts 223°
2026-05-05 05:26 33.94814 -118.42291 117 ft 16 kts 174°
2026-05-05 05:26 33.94701 -118.42268 117 ft 17 kts 169°
2026-05-05 05:27 33.94606 -118.42205 117 ft 16 kts 87°
2026-05-05 05:27 33.94621 -118.42072 119 ft 16 kts 84°
2026-05-05 05:27 33.94629 -118.41931 120 ft 16 kts 85°